Location: Indian Springs
(36.5700°N, 115.6700°W)
Time: 01:25:41
(UTC-07:00)

Amateur Radio Satellites - All Passes

Search period start: 26 July 2016 00:55
Search period end: 27 July 2016 00:55
Location: Indian Springs, 36.5700°N, 115.6700°W

Satellite Date Start Highest point End Downlink Frequencies (MHz)
Time Altitude Azimuth
AISAT 26 Jul 00:58:11 01:00:25 14° 267° (W) 01:02:38 437.250
BEESAT 26 Jul 01:01:14 01:03:09 12° 63° (ENE) 01:05:03 436.000
DX 1 26 Jul 01:02:14 01:05:05 17° 266° (W) 01:07:56 434.975-435.025
Oscar 19 26 Jul 01:05:25 01:08:48 17° 93° (E) 01:12:10 437.125/150
NANOSAT C BR1 26 Jul 01:06:30 01:10:06 27° 290° (WNW) 01:13:41 145.865
DUCHIFAT 1 26 Jul 01:11:34 01:15:05 25° 290° (WNW) 01:18:34 145.980
TISAT 1 26 Jul 01:17:59 01:22:11 80° 259° (W) 01:26:24 437.305
UKube-1 26 Jul 01:19:17 01:21:32 14° 267° (W) 01:23:48 .
Cosmos 2499 26 Jul 01:20:49 01:22:20 11° 60° (ENE) 01:23:49 435.465 / 435.565
ITUPSAT 1 26 Jul 01:21:38 01:25:06 20° 67° (ENE) 01:28:33 437.325
QB50P1 26 Jul 01:29:02 01:31:31 15° 293° (WNW) 01:33:58 145.935-145.965
BUGSAT 1 26 Jul 01:31:45 01:35:35 33° 288° (WNW) 01:39:25 437.445
GONETS M04 26 Jul 01:33:19 01:40:19 26° 70° (ENE) 01:47:17
POPSAT HIP 1 26 Jul 01:35:44 01:37:46 13° 294° (WNW) 01:39:48 437.405
AIST 1 26 Jul 01:48:27 01:51:38 20° 272° (W) 01:54:50
Gurwin Techsat 1B 26 Jul 02:13:18 02:18:10 36° 98° (E) 02:23:01 435.225
SWISSCUBE 26 Jul 02:13:58 02:18:46 81° 75° (ENE) 02:23:34 437.505
JAS-2 26 Jul 02:17:10 02:21:35 27° 291° (WNW) 02:26:15 435.910
BEESAT 26 Jul 02:35:34 02:40:20 66° 259° (WSW) 02:45:06 436.000
ITAMSAT 1 26 Jul 02:36:38 02:40:09 18° 94° (E) 02:43:39 435.822/435.867
Oscar 19 26 Jul 02:43:22 02:48:20 49° 288° (WNW) 02:53:18 437.125/150
ITUPSAT 1 26 Jul 02:58:09 03:02:37 39° 261° (W) 03:07:08 437.325
AO-7 26 Jul 03:00:01 03:05:16 18° 93° (E) 03:10:28 29.400- 29.500
KKS-1 26 Jul 03:04:22 03:08:01 26° 69° (ENE) 03:11:42 437.445
Cosmos 2499 26 Jul 03:09:13 03:17:04 73° 82° (E) 03:24:19 435.465 / 435.565
JUGNU 26 Jul 03:10:14 03:13:20 14° 175° (S) 03:16:25 437.505
ISS 26 Jul 03:22:28 03:24:36 16° 27° (NNE) 03:26:45 145.825
MOZHAYETS 4 26 Jul 03:28:18 03:32:47 50° 74° (ENE) 03:37:16
GONETS M04 26 Jul 03:29:02 03:37:41 64° 268° (W) 03:46:21
CUSAT 1 26 Jul 03:41:26 03:46:00 58° 98° (E) 03:49:30 437.405
PCSat 26 Jul 03:42:22 03:45:50 17° 48° (NE) 03:49:16 145.827
STARS 26 Jul 03:46:13 03:50:13 36° 71° (ENE) 03:54:16 437.465
DANDE 26 Jul 03:50:53 03:56:10 31° 96° (E) 04:00:20 436.750
BEESAT 3 26 Jul 03:52:12 03:56:08 63° 59° (ENE) 04:00:03 437.485
Gurwin Techsat 1B 26 Jul 03:53:37 03:57:54 26° 293° (WNW) 04:02:12 435.225
BEESAT 2 26 Jul 03:55:50 03:59:32 35° 55° (NE) 04:03:12 435.950
ITAMSAT 1 26 Jul 04:14:52 04:19:50 47° 288° (WNW) 04:24:45 435.822/435.867
KKS-1 26 Jul 04:40:51 04:44:29 25° 264° (W) 04:48:10 437.445
CUBESAT XI-V 26 Jul 04:44:29 04:48:44 38° 72° (ENE) 04:52:59 437.345
AO-7 26 Jul 04:50:26 04:58:49 83° 289° (WNW) 05:07:08 29.400- 29.500
ISS 26 Jul 04:58:06 05:01:19 64° 223° (SW) 05:04:32 145.825
JUGNU 26 Jul 04:58:31 05:01:32 14° 186° (S) 05:04:33 437.505
Cosmos 2499 26 Jul 05:04:30 05:09:05 17° 281° (W) 05:13:31 435.465 / 435.565
RS-15 26 Jul 05:06:52 05:13:58 19° 98° (E) 05:21:14 29.354- 29.394
MOZHAYETS 4 26 Jul 05:07:52 05:10:11 14° 268° (W) 05:12:32
STARS 26 Jul 05:23:47 05:26:40 17° 266° (W) 05:29:35 437.465
PCSat 26 Jul 05:24:21 05:29:45 70° 245° (WSW) 05:35:07 145.827
SRMSAT 26 Jul 05:24:39 05:27:38 14° 175° (S) 05:30:40 437.500
DANDE 26 Jul 05:33:57 05:38:48 26° 281° (W) 05:42:43 436.750
BEESAT 2 26 Jul 05:34:29 05:37:04 17° 250° (WSW) 05:39:38 435.950
AIST 2 26 Jul 05:46:13 05:49:45 26° 52° (NE) 05:53:17 435.215
CUTE-I 26 Jul 05:46:30 05:48:56 13° 91° (E) 05:51:22 437.470
STRAND 1 26 Jul 05:47:07 05:48:59 12° 62° (ENE) 05:50:51 437.568
BRITE-PL 26 Jul 05:57:16 06:01:36 31° 97° (E) 06:06:14 437.365/2234.400
HORYU 2 26 Jul 05:57:27 06:01:54 67° 285° (WNW) 06:06:18 437.375
NOAA 15 26 Jul 06:08:47 06:13:25 31° 97° (E) 06:18:02 137.62
NOAA 18 26 Jul 06:10:57 06:15:22 24° 95° (E) 06:19:44 137.9125
O/OREOS (USA 219) 26 Jul 06:15:32 06:19:31 29° 63° (ENE) 06:23:30 437.305
CUBESAT XI-V 26 Jul 06:23:03 06:26:13 18° 266° (W) 06:29:22 437.345
LilacSat-2 26 Jul 06:37:25 06:41:07 42° 99° (E) 06:44:46 437.200
AO-7 26 Jul 06:45:24 06:50:20 17° 307° (NW) 06:55:17 29.400- 29.500
Cubesat XI-IV 26 Jul 07:00:00 07:05:22 73° 103° (ESE) 07:10:40 437.490
Cosmos 2491 26 Jul 07:04:08 07:07:18 12° 61° (ENE) 07:10:28 435.465 / 435.565
DOVE 4 26 Jul 07:04:23 07:09:03 33° 97° (E) 07:13:48 437.250
GOMX 1 26 Jul 07:05:06 07:10:12 73° 101° (ESE) 07:15:33 467.674
SRMSAT 26 Jul 07:12:59 07:16:00 14° 185° (S) 07:19:02 437.500
RS-15 26 Jul 07:13:06 07:24:30 87° 118° (ESE) 07:36:36 29.354- 29.394
STRAND 1 26 Jul 07:22:18 07:27:27 78° 257° (WSW) 07:32:37 437.568
CUTE-I 26 Jul 07:24:06 07:29:24 66° 286° (WNW) 07:34:40 437.470
AIST 2 26 Jul 07:24:42 07:28:08 25° 248° (WSW) 07:31:34 435.215
CINEMA 3 26 Jul 07:25:51 07:28:44 15° 91° (E) 07:31:36 145.822/145.860
CANX-2 26 Jul 07:27:43 07:28:43 11° 91° (E) 07:29:43 2200.000
HO-68 26 Jul 07:35:56 07:41:16 22° 94° (E) 07:46:32 435.675
BRITE-PL 26 Jul 07:35:58 07:39:56 26° 289° (WNW) 07:44:09 437.365/2234.400
CUTE 1.7 + AOD 2 26 Jul 07:40:19 07:42:28 14° 92° (E) 07:44:35 437.475
NOAA 15 26 Jul 07:48:36 07:53:04 29° 292° (WNW) 07:57:33 137.62
NOAA 18 26 Jul 07:50:57 07:56:06 40° 291° (WNW) 08:01:12 137.9125
O/OREOS (USA 219) 26 Jul 07:55:11 07:58:44 23° 258° (WSW) 08:02:17 437.305
SO-50 26 Jul 07:59:04 08:03:49 53° 116° (ESE) 08:08:33 436.795
PRISM 26 Jul 08:09:39 08:13:27 39° 73° (ENE) 08:17:16 437.425
LilacSat-2 26 Jul 08:13:31 08:14:59 12° 293° (WNW) 08:16:27 437.200
SEEDS 26 Jul 08:20:16 08:23:53 28° 97° (E) 08:27:28 437.485
YUBILEINY 26 Jul 08:29:08 08:35:10 21° 80° (E) 08:41:12 435.215
COMPASS 1 26 Jul 08:34:06 08:37:40 28° 96° (E) 08:41:14 437.405
CUBEBUG 2 26 Jul 08:39:29 08:43:23 25° 95° (E) 08:47:11 437.445
Cubesat XI-IV 26 Jul 08:42:14 08:44:45 14° 298° (WNW) 08:47:16 437.490
DOVE 4 26 Jul 08:42:15 08:46:33 27° 290° (WNW) 08:50:56 437.250
GOMX 1 26 Jul 08:45:30 08:47:43 13° 295° (WNW) 08:49:59 467.674
Cosmos 2491 26 Jul 08:56:59 09:05:45 73° 82° (E) 09:14:31 435.465 / 435.565
UNISAT 6 26 Jul 08:59:06 09:00:54 12° 64° (ENE) 09:02:43 437.425
CANX-2 26 Jul 09:00:45 09:04:51 52° 285° (WNW) 09:08:55 2200.000
CINEMA 3 26 Jul 09:01:13 09:06:08 54° 286° (WNW) 09:10:58 145.822/145.860
AAUSAT CUBESAT 2 26 Jul 09:03:09 09:07:09 50° 99° (E) 09:11:08 437.432
Oscar 11 26 Jul 09:06:44 09:09:59 20° 95° (E) 09:13:12 145.826/435.025
CUTE 1.7 + AOD 2 26 Jul 09:14:30 09:18:28 41° 287° (WNW) 09:22:25 437.475
HO-68 26 Jul 09:22:17 09:29:23 63° 290° (WNW) 09:36:25 435.675
RS-15 26 Jul 09:28:50 09:38:39 30° 323° (NW) 09:48:56 29.354- 29.394
ANTELSAT 26 Jul 09:35:05 09:39:04 29° 70° (ENE) 09:43:07 437.575/2403.000
DELFI C3 26 Jul 09:35:35 09:38:12 17° 94° (E) 09:40:48 145.870
SO-50 26 Jul 09:41:06 09:44:36 19° 312° (NW) 09:48:05 436.795
PRISM 26 Jul 09:46:53 09:48:55 13° 267° (W) 09:50:57 437.425
HUMSAT D 26 Jul 09:48:29 09:49:38 11° 91° (E) 09:50:46 437.325/437.525
UWE-3 26 Jul 09:55:25 10:00:01 67° 284° (WNW) 10:04:28 435.000/436.395/437.385
SEEDS 26 Jul 09:56:20 09:59:23 20° 291° (WNW) 10:02:25 437.485
FUNcube-1 26 Jul 09:57:56 10:02:26 77° 102° (ESE) 10:06:48 145.935
ZACube-1 26 Jul 09:58:17 10:02:49 84° 102° (ESE) 10:07:12 437.345
COMPASS 1 26 Jul 10:10:02 10:13:02 20° 291° (WNW) 10:16:02 437.405
CUBEBUG 2 26 Jul 10:15:54 10:19:55 28° 290° (WNW) 10:23:50 437.445
TIGRISAT 26 Jul 10:16:20 10:20:55 80° 77° (ENE) 10:25:37 435.000
YUBILEINY 26 Jul 10:22:13 10:30:58 73° 279° (W) 10:39:49 435.215
NANOSAT C BR1 26 Jul 10:22:20 10:24:11 13° 65° (ENE) 10:26:03 145.865
DUCHIFAT 1 26 Jul 10:26:53 10:28:56 13° 66° (ENE) 10:30:59 145.980
UNISAT 6 26 Jul 10:32:27 10:37:00 64° 259° (W) 10:41:40 437.425
M-CUBED/EXP-1 PRIME 26 Jul 10:37:32 10:42:14 64° 106° (ESE) 10:46:52 437.505
AAUSAT CUBESAT 2 26 Jul 10:40:43 10:42:10 12° 294° (WNW) 10:43:37 437.432
Oscar 11 26 Jul 10:42:23 10:46:06 29° 289° (WNW) 10:49:48 145.826/435.025
QB50P1 26 Jul 10:42:29 10:45:50 23° 69° (ENE) 10:49:11 145.935-145.965
JAS-2 26 Jul 10:46:01 10:47:25 11° 62° (ENE) 10:48:47 435.910
Cosmos 2504 26 Jul 10:46:03 10:54:38 59° 91° (E) 11:03:17 435.465 / 435.565
POPSAT HIP 1 26 Jul 10:48:36 10:52:09 26° 70° (ENE) 10:55:43 437.405
Cosmos 2491 26 Jul 10:55:39 11:01:37 21° 279° (W) 11:07:37 435.465 / 435.565
AUBIESAT-1 26 Jul 11:04:32 11:09:12 79° 289° (WNW) 11:13:48 437.475
QB50P2 26 Jul 11:08:39 11:12:44 49° 74° (ENE) 11:16:52 145.880/145.840
DELFI C3 26 Jul 11:09:39 11:13:04 29° 288° (WNW) 11:16:28 145.870
POLYITAN 1 26 Jul 11:11:16 11:15:23 50° 74° (ENE) 11:19:32 437.675
ANTELSAT 26 Jul 11:12:00 11:15:43 24° 265° (W) 11:19:31 437.575/2403.000
HO-68 26 Jul 11:14:45 11:15:40 10° 308° (NW) 11:16:35 435.675
AISAT 26 Jul 11:15:04 11:15:44 10° 91° (E) 11:16:24 437.250
HUMSAT D 26 Jul 11:21:29 11:25:32 50° 286° (WNW) 11:29:32 437.325/437.525
ESTCUBE 1 26 Jul 11:42:59 11:47:12 39° 98° (E) 11:51:25 437.505/2401.250
RS-15 26 Jul 11:50:33 11:57:09 16° 358° (N) 12:03:51 29.354- 29.394
NANOSAT C BR1 26 Jul 11:55:21 11:59:26 49° 260° (W) 12:03:35 145.865
DUCHIFAT 1 26 Jul 12:00:09 12:04:11 46° 261° (W) 12:08:17 145.980
VELOX 1 26 Jul 12:03:36 12:07:44 37° 98° (E) 12:11:52 145.980
SPROUT 26 Jul 12:06:36 12:09:36 18° 94° (E) 12:12:35 437.525
CUBEBUG 1 26 Jul 12:07:05 12:11:22 49° 100° (E) 12:15:39 437.445
M-CUBED/EXP-1 PRIME 26 Jul 12:13:48 12:16:10 14° 300° (WNW) 12:18:33 437.505
QB50P1 26 Jul 12:17:55 12:21:28 26° 264° (W) 12:25:02 145.935-145.965
BUGSAT 1 26 Jul 12:18:23 12:22:25 68° 259° (W) 12:26:32 437.445
Oscar 19 26 Jul 12:20:02 12:23:44 21° 66° (ENE) 12:27:26 437.125/150
POPSAT HIP 1 26 Jul 12:24:32 12:27:51 22° 265° (W) 12:31:12 437.405
JAS-2 26 Jul 12:25:35 12:31:52 89° 74° (ENE) 12:37:28 435.910
YUBILEINY 26 Jul 12:26:10 12:29:26 12° 299° (WNW) 12:32:42 435.215
AIST 1 26 Jul 12:38:06 12:40:59 18° 88° (E) 12:43:53
Cosmos 2504 26 Jul 12:41:04 12:48:26 29° 289° (WNW) 12:55:51 435.465 / 435.565
50 SAT 26 Jul 12:46:21 12:49:50 49° 285° (WNW) 12:53:18 437.505
QB50P2 26 Jul 12:47:14 12:48:48 12° 268° (W) 12:50:22 145.880/145.840
AISAT 26 Jul 12:48:09 12:52:33 61° 285° (WNW) 12:56:57 437.250
POLYITAN 1 26 Jul 12:49:59 12:51:26 12° 268° (W) 12:52:55 437.675
DX 1 26 Jul 12:50:56 12:55:20 84° 280° (W) 12:59:42 434.975-435.025
TISAT 1 26 Jul 13:05:13 13:08:14 19° 94° (E) 13:11:14 437.305
UKube-1 26 Jul 13:06:19 13:10:37 72° 286° (WNW) 13:14:56 .
ESTCUBE 1 26 Jul 13:20:47 13:23:41 17° 293° (WNW) 13:26:35 437.505/2401.250
Gurwin Techsat 1B 26 Jul 13:31:52 13:36:53 45° 72° (ENE) 13:41:57 435.225
AO-85 26 Jul 13:33:11 13:38:25 51° 115° (ESE) 13:43:29 145.980
VELOX 1 26 Jul 13:40:55 13:43:53 18° 293° (WNW) 13:46:52 145.980
SPROUT 26 Jul 13:41:43 13:45:35 33° 288° (WNW) 13:49:27 437.525
CUBEBUG 1 26 Jul 13:44:58 13:47:13 14° 294° (WNW) 13:49:26 437.445
ITAMSAT 1 26 Jul 13:52:08 13:56:10 23° 66° (ENE) 14:00:13 435.822/435.867
AO-7 26 Jul 13:56:38 14:02:43 23° 56° (NE) 14:08:48 29.400- 29.500
Oscar 19 26 Jul 13:57:53 14:02:43 42° 261° (W) 14:07:35 437.125/150
RS-15 26 Jul 14:05:56 14:16:00 28° 34° (NE) 14:26:00 29.354- 29.394
AIST 1 26 Jul 14:14:37 14:18:18 29° 282° (WNW) 14:22:02
CUSAT 1 26 Jul 14:16:21 14:18:42 19° 79° (E) 14:21:26 437.405
SWISSCUBE 26 Jul 14:17:16 14:21:08 24° 96° (E) 14:24:59 437.505
GONETS M04 26 Jul 14:31:38 14:38:54 31° 85° (E) 14:46:10
BEESAT 26 Jul 14:38:19 14:42:44 37° 98° (E) 14:47:07 436.000
TISAT 1 26 Jul 14:40:07 14:43:54 31° 289° (WNW) 14:47:39 437.305
ITUPSAT 1 26 Jul 15:00:40 15:05:25 64° 102° (ESE) 15:10:07 437.325
Gurwin Techsat 1B 26 Jul 15:13:13 15:17:01 20° 266° (W) 15:20:50 435.225
AO-85 26 Jul 15:14:56 15:19:08 23° 311° (NW) 15:23:12 145.980
MOZHAYETS 4 26 Jul 15:27:21 15:29:45 14° 92° (E) 15:32:09
ITAMSAT 1 26 Jul 15:30:30 15:35:22 39° 261° (W) 15:40:15 435.822/435.867
Cosmos 2499 26 Jul 15:40:25 15:49:10 66° 92° (E) 15:57:47 435.465 / 435.565
AO-7 26 Jul 15:46:14 15:54:35 78° 254° (WSW) 16:03:01 29.400- 29.500
SWISSCUBE 26 Jul 15:54:46 15:58:53 30° 291° (WNW) 16:02:59 437.505
CUSAT 1 26 Jul 15:58:54 16:00:34 13° 264° (W) 16:02:25 437.405
DANDE 26 Jul 16:14:21 16:16:35 24° 264° (W) 16:19:02 436.750
BEESAT 26 Jul 16:16:45 16:20:14 21° 293° (WNW) 16:23:42 436.000
RS-15 26 Jul 16:18:12 16:30:40 83° 60° (ENE) 16:42:51 29.354- 29.394
GONETS M04 26 Jul 16:26:55 16:35:15 51° 282° (WNW) 16:43:41
PHONESAT 2.4 26 Jul 16:33:07 16:35:47 27° 150° (SSE) 16:38:29 2401.200-2431.200
KKS-1 26 Jul 16:33:08 16:37:38 74° 102° (ESE) 16:42:06 437.445
SO-50 26 Jul 16:33:26 16:37:16 25° 50° (NE) 16:40:59 436.795
ITUPSAT 1 26 Jul 16:40:41 16:42:40 13° 297° (WNW) 16:44:39 437.325
Cubesat XI-IV 26 Jul 16:44:02 16:45:33 11° 60° (ENE) 16:47:02 437.490
CUBESAT XI-V 26 Jul 16:45:46 16:47:03 11° 91° (E) 16:48:19 437.345
HORYU 2 26 Jul 16:52:34 16:57:02 82° 76° (ENE) 17:01:33 437.375
MOZHAYETS 4 26 Jul 17:02:46 17:07:09 47° 287° (WNW) 17:11:30
CUTE-I 26 Jul 17:05:29 17:09:08 19° 64° (ENE) 17:12:47 437.470
BRITE-PL 26 Jul 17:07:06 17:10:22 23° 70° (ENE) 17:13:38 437.365/2234.400
STARS 26 Jul 17:13:42 17:18:10 80° 283° (WNW) 17:22:36 437.465
LilacSat-2 26 Jul 17:18:04 17:20:27 16° 68° (ENE) 17:22:50 437.200
NOAA 15 26 Jul 17:26:24 17:31:14 39° 70° (ENE) 17:36:05 137.62
NOAA 18 26 Jul 17:34:33 17:39:33 37° 69° (ENE) 17:44:36 137.9125
Cosmos 2499 26 Jul 17:35:48 17:42:49 26° 290° (WNW) 17:49:47 435.465 / 435.565
BEESAT 3 26 Jul 17:41:26 17:44:11 19° 111° (ESE) 17:46:57 437.485
AO-7 26 Jul 17:45:25 17:48:27 12° 270° (W) 17:51:31 29.400- 29.500
BEESAT 2 26 Jul 17:48:16 17:49:11 11° 108° (ESE) 17:50:07 435.950
HO-68 26 Jul 18:04:50 18:08:00 13° 55° (NE) 18:11:10 435.675
DOVE 4 26 Jul 18:08:32 18:11:45 21° 68° (ENE) 18:15:05 437.250
PHONESAT 2.4 26 Jul 18:09:07 18:12:10 61° 345° (NNW) 18:15:13 2401.200-2431.200
GOMX 1 26 Jul 18:11:34 18:15:35 53° 75° (ENE) 18:19:46 467.674
SO-50 26 Jul 18:13:39 18:17:45 33° 247° (WSW) 18:21:44 436.795
Cubesat XI-IV 26 Jul 18:19:25 18:24:48 88° 257° (WSW) 18:30:14 437.490
CUBESAT XI-V 26 Jul 18:20:13 18:24:46 61° 285° (WNW) 18:29:19 437.345
PCSat 26 Jul 18:21:39 18:25:39 21° 106° (ESE) 18:29:41 145.827
RS-15 26 Jul 18:32:38 18:41:42 25° 259° (W) 18:50:40 29.354- 29.394
CUTE-I 26 Jul 18:43:31 18:48:44 51° 260° (W) 18:53:59 437.470
BRITE-PL 26 Jul 18:45:27 18:48:47 23° 264° (W) 18:52:07 437.365/2234.400
LilacSat-2 26 Jul 18:51:01 18:54:28 31° 263° (W) 18:57:58 437.200
NOAA 15 26 Jul 19:07:03 19:11:05 22° 265° (W) 19:15:09 137.62
SEEDS 26 Jul 19:10:35 19:13:06 16° 67° (ENE) 19:15:37 437.485
NOAA 18 26 Jul 19:15:39 19:20:13 26° 264° (W) 19:24:51 137.9125
BEESAT 3 26 Jul 19:18:08 19:21:37 30° 306° (NW) 19:25:09 437.485
BEESAT 2 26 Jul 19:22:39 19:26:30 52° 302° (WNW) 19:30:24 435.950
COMPASS 1 26 Jul 19:23:34 19:25:56 15° 67° (ENE) 19:28:18 437.405
STRAND 1 26 Jul 19:35:29 19:40:21 43° 99° (E) 19:45:11 437.568
CUBEBUG 2 26 Jul 19:35:48 19:38:42 17° 66° (ENE) 19:41:38 437.445
DOVE 4 26 Jul 19:45:37 19:49:16 28° 265° (W) 19:53:06 437.250
PHONESAT 2.4 26 Jul 19:46:02 19:48:57 37° 1° (N) 19:51:51 2401.200-2431.200
HO-68 26 Jul 19:47:22 19:54:32 77° 72° (ENE) 20:01:45 435.675
CANX-2 26 Jul 19:50:27 19:54:44 77° 75° (ENE) 19:59:01 2200.000
AAUSAT CUBESAT 2 26 Jul 19:51:18 19:54:39 24° 70° (ENE) 19:58:01 437.432
CINEMA 3 26 Jul 19:59:57 20:04:23 78° 258° (WSW) 20:09:05 145.822/145.860
Oscar 11 26 Jul 20:00:31 20:02:25 13° 65° (ENE) 20:04:20 145.826/435.025
ISS 26 Jul 20:01:17 20:02:42 12° 127° (SE) 20:04:08 145.825
Cosmos 2491 26 Jul 20:03:25 20:07:48 15° 78° (ENE) 20:12:12 435.465 / 435.565
PCSat 26 Jul 20:03:30 20:08:41 46° 302° (WNW) 20:13:55 145.827
CUTE 1.7 + AOD 2 26 Jul 20:03:59 20:08:16 85° 258° (WSW) 20:12:34 437.475
O/OREOS (USA 219) 26 Jul 20:24:57 20:29:18 54° 107° (ESE) 20:33:39 437.305
YUBILEINY 26 Jul 20:35:38 20:44:13 51° 78° (ENE) 20:52:41 435.215
SEEDS 26 Jul 20:44:30 20:48:27 39° 262° (W) 20:52:26 437.485
Cosmos 2504 26 Jul 20:44:32 20:49:21 17° 65° (ENE) 20:53:57 435.465 / 435.565
UWE-3 26 Jul 20:49:12 20:53:43 71° 76° (ENE) 20:58:21 435.000/436.395/437.385
FUNcube-1 26 Jul 20:50:31 20:54:46 43° 73° (ENE) 20:59:07 145.935
ZACube-1 26 Jul 20:51:06 20:55:25 47° 74° (ENE) 20:59:50 437.345
COMPASS 1 26 Jul 20:57:11 21:01:08 39° 262° (W) 21:05:05 437.405
CUBEBUG 2 26 Jul 21:10:33 21:14:53 44° 262° (W) 21:19:22 437.445
STRAND 1 26 Jul 21:15:32 21:19:11 20° 294° (WNW) 21:22:49 437.568
AIST 2 26 Jul 21:18:58 21:23:02 68° 300° (WNW) 21:27:10 435.215
M-CUBED/EXP-1 PRIME 26 Jul 21:22:00 21:25:33 47° 69° (ENE) 21:29:25 437.505
PHONESAT 2.4 26 Jul 21:22:35 21:25:41 74° 19° (NNE) 21:28:45 2401.200-2431.200
AAUSAT CUBESAT 2 26 Jul 21:26:43 21:30:02 23° 265° (W) 21:33:23 437.432
PRISM 26 Jul 21:28:17 21:32:24 86° 281° (W) 21:36:30 437.425
Oscar 11 26 Jul 21:33:50 21:38:04 52° 260° (W) 21:42:20 145.826/435.025
ISS 26 Jul 21:35:36 21:38:47 53° 322° (NW) 21:41:59 145.825
HO-68 26 Jul 21:38:32 21:42:52 17° 268° (W) 21:47:14 435.675
AUBIESAT-1 26 Jul 21:48:18 21:52:01 84° 73° (ENE) 21:56:05 437.475
DELFI C3 26 Jul 21:52:13 21:56:12 74° 258° (WSW) 22:00:10 145.870
Cosmos 2491 26 Jul 21:54:36 22:03:19 89° 97° (E) 22:12:04 435.465 / 435.565
O/OREOS (USA 219) 26 Jul 22:06:48 22:09:02 13° 303° (WNW) 22:11:16 437.305
AO-85 26 Jul 22:08:39 22:11:53 20° 48° (NE) 22:14:58 145.980
HUMSAT D 26 Jul 22:09:30 22:13:48 78° 75° (ENE) 22:18:07 437.325/437.525
TIGRISAT 26 Jul 22:11:23 22:14:48 20° 94° (E) 22:18:10 435.000
UNISAT 6 26 Jul 22:27:02 22:31:11 32° 97° (E) 22:35:15 437.425
FUNcube-1 26 Jul 22:28:31 22:31:12 15° 268° (W) 22:33:54 145.935
ZACube-1 26 Jul 22:29:31 22:31:56 14° 268° (W) 22:34:23 437.345
YUBILEINY 26 Jul 22:33:08 22:40:32 31° 276° (W) 22:47:54 435.215
Cosmos 2504 26 Jul 22:35:42 22:43:51 83° 266° (W) 22:51:22 435.465 / 435.565
ESTCUBE 1 26 Jul 22:40:20 22:44:08 28° 70° (ENE) 22:47:55 437.505/2401.250
VELOX 1 26 Jul 22:58:53 23:02:26 25° 69° (ENE) 23:06:00 145.980
PHONESAT 2.4 26 Jul 22:59:34 23:01:58 21° 212° (SSW) 23:04:22 2401.200-2431.200
SPROUT 26 Jul 22:59:53 23:00:56 11° 64° (ENE) 23:01:58 437.525
CUBEBUG 1 26 Jul 23:00:53 23:04:36 29° 71° (ENE) 23:08:22 437.445
ANTELSAT 26 Jul 23:05:10 23:09:50 88° 102° (ESE) 23:14:21 437.575/2403.000
ISS 26 Jul 23:15:04 23:15:49 11° 340° (NNW) 23:16:34 145.825
50 SAT 26 Jul 23:21:09 23:24:38 43° 74° (ENE) 23:28:08 437.505
NANOSAT C BR1 26 Jul 23:42:21 23:46:07 30° 97° (E) 23:49:51 145.865
AISAT 26 Jul 23:42:42 23:47:05 85° 75° (ENE) 23:51:29 437.250
DX 1 26 Jul 23:43:46 23:48:00 59° 75° (ENE) 23:52:17 434.975-435.025
DUCHIFAT 1 26 Jul 23:46:46 23:50:35 31° 97° (E) 23:54:21 145.980
TIGRISAT 26 Jul 23:47:23 23:51:32 33° 289° (WNW) 23:55:36 435.000
AO-85 26 Jul 23:48:35 23:52:27 34° 247° (WSW) 23:56:04 145.980
Cosmos 2491 26 Jul 23:56:11 00:01:19 17° 295° (WNW) 00:06:29 435.465 / 435.565
TISAT 1 26 Jul 23:56:42 23:57:38 11° 64° (ENE) 23:58:33 437.305
UKube-1 26 Jul 23:58:03 00:02:19 68° 76° (ENE) 00:06:36 .
BUGSAT 1 27 Jul 00:03:13 00:06:27 21° 95° (E) 00:09:38 437.445
UNISAT 6 27 Jul 00:04:09 00:07:40 22° 292° (WNW) 00:11:06 437.425
QB50P1 27 Jul 00:04:12 00:08:27 59° 101° (E) 00:12:39 145.935-145.965
POPSAT HIP 1 27 Jul 00:10:35 00:14:53 69° 102° (ESE) 00:19:08 437.405
ESTCUBE 1 27 Jul 00:17:15 00:20:52 24° 264° (W) 00:24:30 437.505/2401.250
AIST 1 27 Jul 00:23:20 00:27:33 48° 80° (E) 00:31:46
QB50P2 27 Jul 00:31:30 00:35:44 60° 285° (WNW) 00:39:57 145.880/145.840
SPROUT 27 Jul 00:32:07 00:36:19 60° 260° (W) 00:40:34 437.525
Cosmos 2504 27 Jul 00:33:01 00:35:41 12° 284° (WNW) 00:38:18 435.465 / 435.565
POLYITAN 1 27 Jul 00:34:09 00:38:23 59° 285° (WNW) 00:42:35 437.675
VELOX 1 27 Jul 00:35:10 00:38:47 25° 264° (W) 00:42:26 145.980
CUBEBUG 1 27 Jul 00:37:41 00:40:53 20° 265° (W) 00:44:07 437.445
GONETS M04 27 Jul 00:46:39 00:50:02 12° 62° (ENE) 00:53:23
